Date String (YYYY-MM-DD hh:mm:ss) UTC,Instrument flags,Ambient pressure (hPa),Sample flow (lpm),Bypass flow (lpm),Sample temperature (°C),Ambient temperature (°C),ASC tube jacket temperature (°C),LED temperature (°C),Box temperature (°C),Sample RH (%),Span deviation,Mass concentration (μg/m³),Mass concentration (μg/m³),Mass concentration (μg/m³)
DateTimeUTC,F1_M11,P_M11,Q1_M11,Q2_M11,T1_M11,T2_M11,T3_M11,T4_M11,T5_M11,U1_M11,ZSPAN_M11,X0_M11,X2_M11,X1_M11
2021-11-14 18:00:00,,0826.4,5.00,0.00,25.3,24.6,00.0,34.4,27.2,14.7,0000.0,0012.06,0002.30,0000.76
2021-11-14 18:01:00,,0826.3,5.00,0.00,25.3,24.6,00.0,34.4,27.2,14.7,0000.0,0012.14,0002.29,0000.76
2021-11-14 18:02:00,,0826.3,5.01,0.00,25.3,24.6,00.0,34.4,27.2,14.7,0000.0,0011.94,0002.33,0000.76
2021-11-14 18:03:00,,0826.4,4.99,0.00,25.3,24.6,00.0,34.4,27.2,14.8,0000.0,0012.40,0002.42,0000.77
2021-11-14 18:04:00,,0826.4,5.00,0.00,25.3,24.6,00.0,34.4,27.2,14.7,0000.0,0013.39,0002.49,0000.78
2021-11-14 18:05:00,,0826.5,5.01,0.00,25.3,24.6,00.0,34.4,27.2,14.7,0000.0,0013.41,0002.58,0000.79
2021-11-14 18:06:00,,0826.5,4.99,0.00,25.3,24.6,00.0,34.4,27.2,14.7,0000.0,0012.63,0002.52,0000.79
2021-11-14 18:07:00,,0826.6,5.01,0.00,25.4,24.6,00.0,34.4,27.2,14.7,0000.0,0012.41,0002.52,0000.78
2021-11-14 18:08:00,,0826.5,5.01,0.00,25.4,24.6,00.0,34.4,27.2,14.7,0000.0,0012.12,0002.42,0000.78
2021-11-14 18:09:00,,0826.6,4.99,0.00,25.4,24.6,00.0,34.4,27.2,14.8,0000.0,0011.69,0002.30,0000.77
2021-11-14 18:10:00,,0826.5,4.99,0.00,25.4,24.6,00.0,34.4,27.3,14.7,0000.0,0010.98,0002.19,0000.76
2021-11-14 18:11:00,,0826.5,5.00,0.00,25.4,24.7,00.0,34.4,27.3,14.7,0000.0,0010.73,0002.08,0000.75
2021-11-14 18:12:00,,0826.5,4.99,0.00,25.4,24.7,00.0,34.4,27.3,14.7,0000.0,0010.39,0002.04,0000.74
2021-11-14 18:13:00,,0826.5,5.00,0.00,25.4,24.7,00.0,34.5,27.3,14.6,0000.0,0009.87,0001.95,0000.74
2021-11-14 18:14:00,,0826.5,4.99,0.00,25.4,24.7,00.0,34.5,27.3,14.6,0000.0,0009.20,0001.80,0000.73
2021-11-14 18:15:00,,0826.5,5.01,0.00,25.4,24.8,00.0,34.5,27.3,14.7,0000.0,0007.89,0001.66,0000.71
2021-11-14 18:16:00,,0826.6,4.99,0.00,25.5,24.8,00.0,34.5,27.3,14.7,0000.0,0007.32,0001.42,0000.69
2021-11-14 18:17:00,,0826.5,4.99,0.00,25.5,24.8,00.0,34.5,27.4,14.7,0000.0,0006.98,0001.31,0000.67
2021-11-14 18:18:00,,0826.6,5.01,0.00,25.5,24.8,00.0,34.5,27.3,14.7,0000.0,0006.99,0001.26,0000.67
2021-11-14 18:19:00,,0826.5,5.01,0.00,25.5,24.8,00.0,34.5,27.3,14.8,0000.0,0006.68,0001.22,0000.67
2021-11-14 18:20:00,,0826.5,4.99,0.00,25.5,24.8,00.0,34.5,27.3,14.8,0000.0,0004.76,0001.15,0000.66
2021-11-14 18:21:00,,0826.4,5.02,0.00,25.5,24.8,00.0,34.5,27.3,14.7,0000.0,0003.86,0001.14,0000.66
2021-11-14 18:22:00,,0826.4,5.00,0.00,25.5,24.8,00.0,34.5,27.4,14.7,0000.0,0003.18,0001.15,0000.65
2021-11-14 18:23:00,,0826.5,5.00,0.00,25.5,24.8,00.0,34.5,27.4,14.7,0000.0,0002.90,0001.12,0000.64
2021-11-14 18:24:00,,0826.4,5.00,0.00,25.5,24.8,00.0,34.5,27.4,14.7,0000.0,0002.55,0001.08,0000.62
2021-11-14 18:25:00,,0826.4,4.99,0.00,25.6,24.8,00.0,34.5,27.4,14.7,0000.0,0002.54,0001.03,0000.61
2021-11-14 18:26:00,,0826.5,4.99,0.00,25.6,24.8,00.0,34.5,27.4,14.7,0000.0,0002.49,0001.02,0000.61
2021-11-14 18:27:00,,0826.4,5.01,0.00,25.6,24.8,00.0,34.6,27.4,14.8,0000.0,0002.49,0001.02,0000.61
2021-11-14 18:28:00,,0826.2,5.00,0.00,25.6,24.8,00.0,34.6,27.4,14.8,0000.0,0002.51,0001.01,0000.60
2021-11-14 18:29:00,,0826.2,5.01,0.00,25.6,24.8,00.0,34.6,27.4,14.7,0000.0,0002.74,0001.03,0000.59
2021-11-14 18:30:00,,0826.3,4.99,0.00,25.6,24.9,00.0,34.6,27.4,14.7,0000.0,0003.29,0001.08,0000.58
2021-11-14 18:31:00,,0826.2,5.01,0.00,25.6,24.9,00.0,34.6,27.5,14.7,0000.0,0003.16,0001.08,0000.58
2021-11-14 18:32:00,,0826.2,5.00,0.00,25.6,24.9,00.0,34.6,27.5,14.7,0000.0,0002.91,0001.03,0000.58
2021-11-14 18:33:00,,0826.3,4.99,0.00,25.7,24.9,00.0,34.6,27.5,14.7,0000.0,0002.72,0000.95,0000.57
2021-11-14 18:34:00,,0826.3,5.02,0.00,25.7,24.9,00.0,34.6,27.5,14.8,0000.0,0002.86,0000.94,0000.56
2021-11-14 18:35:00,,0826.4,4.99,0.00,25.7,24.9,00.0,34.7,27.5,14.7,0000.0,0002.98,0000.97,0000.56
2021-11-14 18:36:00,,0826.3,5.00,0.00,25.7,24.9,00.0,34.7,27.5,14.7,0000.0,0002.98,0001.00,0000.55
2021-11-14 18:37:00,,0826.3,5.00,0.00,25.7,24.9,00.0,34.7,27.5,14.7,0000.0,0003.23,0001.01,0000.54
2021-11-14 18:38:00,,0826.3,4.99,0.00,25.7,24.9,00.0,34.7,27.5,14.7,0000.0,0003.75,0001.04,0000.53
2021-11-14 18:39:00,,0826.3,5.00,0.00,25.7,25.0,00.0,34.7,27.6,14.7,0000.0,0003.82,0001.04,0000.53
2021-11-14 18:40:00,,0826.4,5.00,0.00,25.7,25.0,00.0,34.7,27.6,14.8,0000.0,0003.52,0001.01,0000.53
2021-11-14 18:41:00,,0826.5,5.00,0.00,25.8,25.0,00.0,34.7,27.6,14.7,0000.0,0003.12,0000.96,0000.52
2021-11-14 18:42:00,,0826.5,5.01,0.00,25.8,25.0,00.0,34.7,27.6,14.6,0000.0,0003.04,0000.94,0000.52
2021-11-14 18:43:00,,0826.4,4.99,0.00,25.8,25.0,00.0,34.7,27.6,14.6,0000.0,0003.01,0000.93,0000.52
2021-11-14 18:44:00,,0826.3,5.01,0.00,25.8,25.0,00.0,34.8,27.6,14.6,0000.0,0002.98,0000.92,0000.52
2021-11-14 18:45:00,,0826.2,5.01,0.00,25.8,25.0,00.0,34.8,27.6,14.6,0000.0,0003.29,0000.92,0000.53
2021-11-14 18:46:00,,0826.3,4.99,0.00,25.8,25.0,00.0,34.8,27.7,14.6,0000.0,0003.30,0000.91,0000.52
2021-11-14 18:47:00,,0826.4,5.01,0.00,25.9,25.0,00.0,34.8,27.6,14.6,0000.0,0003.43,0000.91,0000.53
2021-11-14 18:48:00,,0826.2,5.01,0.00,25.9,25.0,00.0,34.8,27.7,14.5,0000.0,0003.21,0000.88,0000.53
2021-11-14 18:49:00,,0826.2,4.99,0.00,25.9,25.1,00.0,34.8,27.7,14.6,0000.0,0002.74,0000.87,0000.52
2021-11-14 18:50:00,,0826.1,5.02,0.00,25.9,25.1,00.0,34.8,27.7,14.6,0000.0,0002.96,0000.89,0000.52
2021-11-14 18:51:00,,0826.0,4.99,0.00,25.9,25.1,00.0,34.9,27.8,14.6,0000.0,0004.10,0000.93,0000.52
2021-11-14 18:52:00,,0826.1,5.00,0.00,25.9,25.1,00.0,34.9,27.8,14.6,0000.0,0004.01,0000.95,0000.52
2021-11-14 18:53:00,,0826.1,5.01,0.00,25.9,25.2,00.0,34.9,27.7,14.6,0000.0,0004.23,0001.02,0000.52
2021-11-14 18:54:00,,0826.2,4.99,0.00,25.9,25.2,00.0,34.9,27.7,14.5,0000.0,0004.27,0001.02,0000.51
2021-11-14 18:55:00,,0826.2,5.00,0.00,25.9,25.2,00.0,34.9,27.8,14.6,0000.0,0004.26,0001.02,0000.50
2021-11-14 18:56:00,,0826.2,5.00,0.00,26.0,25.2,00.0,34.9,27.8,14.5,0000.0,0004.00,0001.03,0000.48
2021-11-14 18:57:00,,0826.1,5.00,0.00,26.0,25.2,00.0,34.9,27.8,14.5,0000.0,0003.68,0001.02,0000.48
2021-11-14 18:58:00,,0826.0,5.01,0.00,26.0,25.2,00.0,34.9,27.8,14.6,0000.0,0003.44,0000.97,0000.48
2021-11-14 18:59:00,,0826.2,4.99,0.00,26.0,25.2,00.0,34.9,27.7,14.5,0000.0,0003.38,0000.95,0000.47
